Zurück zum Katalog

USA 423

AktivMilitärVLEO
NORAD 61646·PAYLOAD·🇺🇸 United States

Gestartet Oct 24, 2024 von Vandenberg Space Force Base

Loading…

Nächste Überflüge (nächste 24 Stunden)

TLE

VeraltetSource: Mike McCants

Epoche: Aug 11, 2026, 19:35 UTC

1 61646U 24192C   26223.81602902 0.00000000  00000-0  00000-0 0    07
2 61646  70.0167 112.3707 0004000 231.1279 128.8720 14.96713499    07

Verfolge USA 423 in Echtzeit mit AllMySat

Download on the App Store